Location: *
(42.3442°N, 9.2072°E)
Time: 10:54:30
(UTC+00:00)

Cosmos 1174 - Pass Details

Date: 19 August 2020
Orbit: 363 x 1155 km, 66.1° (Epoch: 22 September)

Event Time Altitude Azimuth Distance (km) Brightness Sun altitude
Exits shadow 02:34:22 33° 171° (S) 1,023 4.9 -20.2°
Maximum altitude 02:36:00 51° 114° (ESE) 803 4.7 -20.0°
Drops below altitude 10° 02:41:02 10° 40° (NE) 2,307 8.2 -19.3°
Sets 02:43:48 0° 36° (NE) 3,385 9.3 -18.9°
